Location: Macksville High School
(37.9611°N, 99.9654°W)
Time: 00:56:36
(UTC+00:00)

Envisat - Pass Details

Date: 17 January 2021
Orbit: 764 x 766 km, 98.1° (Epoch: 07 March)

Event Time Altitude Azimuth Distance (km) Brightness Sun altitude
Rises 12:53:32 0° 6° (N) 3,240 6.1 -11.9°
Reaches altitude 10° 12:55:54 10° 1° (N) 2,310 5.3 -11.4°
Maximum altitude 13:00:47 49° 288° (WNW) 981 3.2 -10.5°
Drops below altitude 10° 13:05:39 10° 214° (SW) 2,294 5.3 -9.6°
Sets 13:08:00 0° 209° (SSW) 3,216 6.1 -9.2°
